AirNav   SIMCOM
 
 691 users online  

2MS2 Highland Community Hospital Heliport
Picayune, Mississippi, USA


FAA INFORMATION EFFECTIVE 14 SEPTEMBER 2017

Location

FAA Identifier: 2MS2
Lat/Long: 30-32-57.3100N / 089-39-57.1800W
30-32.955167N / 089-39.953000W
30.5492528 / -89.6658833
(estimated)
Elevation: 50 ft. / 15 m (estimated)
From city: 2 miles N of PICAYUNE, MS
Time zone: UTC +0 (year round; does not observe DST)
Zip code: 39466

Heliport Operations

Heliport use: Private use. Permission required prior to landing
Activation date: 03/2017
Control tower: no
ARTCC: HOUSTON CENTER
FSS: GREENWOOD FLIGHT SERVICE STATION
Attendance: 
Wind indicator: yes
Segmented circle: no

Heliport Communications

WX AWOS-3 at MJD (4 nm S): 119.075 (601-798-4136)
WX ASOS at ASD (15 nm SW): 132.475 (985-643-7263)
WX AWOS-3 at HSA (15 nm SE): 118.375 (228-466-9320)
WX AWOS-3PT at BXA (19 nm NW): 118.025 (985-732-6224)

Nearby radio navigation aids

VOR radial/distance  VOR name  Freq  Var
PCUr097/3.4PICAYUNE VOR/DME112.2005E
GPTr284/31.6GULFPORT VORTAC109.0002E
HMUr087/(38.9)HAMMOND VOR109.6000E

 
NDB name  Hdg/Dist  Freq  Var  ID
HANCO300/12.422102WHS .... ...
BOGALUSA151/22.435302EGVB --. ...- -...

Heliport Services

Runway Information

Helipad H1

Dimensions: 54 x 54 ft. / 16 x 16 m
Surface: concrete
Runway edge lights: PERI
Latitude: 30-32.955167N
Longitude: 089-39.953000W
Elevation: 50.0 ft.
Traffic pattern: leftleft

Heliport Ownership and Management from official FAA records

Ownership: Privately-owned
Owner: HIGHLAND COMMUNITY HOSPITAL
130 HIGHLAND PKWY
PICAYUNE, MS 39466
Phone 601 798 4711
Manager: JOE GIBSON
6051 US HWY 40
HATTIESBURG, MS 39401
Phone 601 798 4711

Instrument Procedures

There are no published instrument procedures at 2MS2.

Some nearby airports with instrument procedures:

KMJD - Picayune Municipal Airport (4 nm S)
KASD - Slidell Airport (15 nm SW)
KHSA - Stennis International Airport (15 nm SE)
M13 - Poplarville-Pearl River County Airport (16 nm NE)
KBXA - George R Carr Memorial Air Field (19 nm NW)
 
Loc | Ops | Rwys | IFR | FBO | Links
Com | Nav | Svcs | Stats | Notes


 
Aerial photo
No photo
 
Airport distance calculator
Flying to Highland Community Hospital Heliport? Find the distance to fly.

From to 2MS2

Sunrise and sunset
Times for 19-Sep-2017
 Zulu (UTC)
Morning civil twilight11:22
Sunrise11:46
Sunset23:59
Evening civil twilight00:23

Current date and time
Zulu (UTC)  20-Sep-2017 03:55:08
 
METAR
KHSA 
16nm SE 
200155Z 00000KT 10SM CLR 25/24 A2995
KASD 
19nm S 
200253Z AUTO 20003KT 10SM CLR 27/23 A2995 RMK AO2 SLP141 T02670233 53012
KBXA 
19nm NW 
200335Z AUTO 00000KT 7SM SCT055 26/23 A2999 RMK AO2 T02560233
KGPT 
31nm E 
200253Z 00000KT 10SM CLR 28/24 A2995 RMK AO2 SLP140 T02830244 51007
TAF
KASD 
19nm S 
191746Z 1918/2018 19005KT P6SM VCTS FEW027CB SCT035 FM191900 23003KT P6SM OVC050 TEMPO 1919/1923 P6SM TS BKN050CB FM200100 VRB03KT P6SM FEW050 SCT200 FM200900 00000KT 4SM BR BKN050 FM201500 21002KT P6SM SCT250
NOTAMs
Click for the latest NOTAMs
NOTAMs are issued by the DoD/FAA and will open in a separate window not controlled by AirNav.

 

 
 

Would you like to see your business listed on this page?

 If your business provides an interesting product or service to pilots, flight crews, aircraft, or users of the Highland Community Hospital Heliport, you should consider listing it here.  To start the listing process, click on the button below
 
Add a business
 

Other Pages about Highland Community Hospital Heliport

Update a link
 
Copyright © AirNav, LLC. All rights reserved. Privacy Policy  Contact